Hourly Data Report for October 12, 2013

All times are specified in Local Standard Time (LST). Add 1 hour to adjust for Daylight Saving Time where and when it is observed.

IQALUIT CLIMATE
NUNAVUT

63°44'50.000" N
68°32'40.000" W
33.50 m
2402592
71321
XFB

Download Data

Hourly Data (October 2013)
Hourly Data Report for October 12, 2013
Temp Definition
°C
Dew Point Temp Definition
°C
Rel Hum Definition
%
Wind Dir Definition
10's deg

Wind Spd Definition
km/h
Visibility Definition
km
Stn Press Definition
kPa
Hmdx Definition


Wind Chill Definition


Weather Definition


TIME
00:00 -4.3 -5.4 92 32 7   102.36   -7 LegendNANA
01:00 -4.2 -5.6 90 32 9   102.33   -8 LegendNANA
02:00 -4.1 -5.3 91 33 7   102.28   -7 LegendNANA
03:00 -4.2 -5.5 91 33 7   102.28   -7 LegendNANA
04:00 -4.5 -5.6 92 32 4   102.23   -6 LegendNANA
05:00 -4.3 -5.7 90 36 6   102.18   -7 LegendNANA
06:00 -4.9 -6.7 87 32 7   102.21   -8 LegendNANA
07:00 -7.0 -8.6 88 34 7   102.14   -11 LegendNANA
08:00 -6.0 -8.0 86 27 6   102.12   -9 LegendNANA
09:00 -6.0 -7.8 87 35 4   102.08   -8 LegendNANA
10:00 -4.1 -6.4 84 29 7   102.04   -7 LegendNANA
11:00 -3.2 -6.2 80 35 2   101.96   -4 LegendNANA
12:00 -2.5 -5.0 83 15 7   101.93   -5 LegendNANA
13:00 -2.2 -4.7 83 12 7   101.87   -5 LegendNANA
14:00 -1.9 -5.0 79 15 9   101.90   -5 LegendNANA
15:00 -1.7 -3.9 85 14 7   101.91   -4 LegendNANA
16:00 -1.5 -2.8 91 14 9   101.94   -5 LegendNANA
17:00 -1.4 -2.2 94 14 11   101.87   -5 LegendNANA
18:00 -0.9 -1.5 96 15 13   101.80   -5 LegendNANA
19:00 -0.6 -1.3 95 16 6   101.82   -3 LegendNANA
20:00 -0.5 -1.3 94 17 6   101.75   -3 LegendNANA
21:00 -0.3 -1.2 94 16 6   101.71   -2 LegendNANA
22:00 -0.1 -1.2 92 13 7   101.69   -3 LegendNANA
23:00 0.4 -0.6 93 14 6   101.64     LegendNANA

Notes on Data Quality.

Legend

  • E = Estimated
  • M = Missing
  • NA = Not Available
  • ‡ = Partner data that is not subject to review by the National Climate Archives
Date modified: